Location: Grust
(42.8833°N, 0.0333°W)
Time: 14:08:22
(UTC+00:00)

COSMOS 2487 - Pass Details

Date: 25 October 2020
Orbit: 438 x 440 km, 74.7° (Epoch: 25 November)

Event Time Altitude Azimuth Distance (km) Brightness Sun altitude
Rises 17:40:16 0° 338° (NNW) 2,447 6.3 -7.7°
Reaches altitude 10° 17:42:22 10° 335° (NNW) 1,571 5.4 -8.1°
Maximum altitude 17:45:47 66° 254° (WSW) 488 2.8 -8.7°
Drops below altitude 10° 17:49:11 10° 171° (S) 1,557 5.1 -9.3°
Sets 17:51:15 0° 168° (SSE) 2,421 6.1 -9.7°
